Edinburg, TX

7:27 AM CDT on August 27, 2016 (GMT -0500)
Edinburg

Weather History for KEBG - June, 2013

Change the Weather History Date:

Sunday, June 23, 2013

  Actual Average (KMFE) Record (KMFE)
Temperature  
Mean Temperature 88 °F 86 °F  
Max Temperature 99 °F 97 °F 102 °F (1990)
Min Temperature 77 °F 76 °F 70 °F (1961)
Degree Days  
Heating Degree Days 0 0  
Month to date heating degree days 0  
Since 1 June heating degree days 0  
Since 1 July heating degree days 579  
Cooling Degree Days 23 21  
Month to date cooling degree days 477  
Year to date cooling degree days 1732  
Since 1 June cooling degree days 477  
Growing Degree Days 38 (Base 50)    
Moisture  
Dew Point 69 °F    
Average Humidity 60    
Maximum Humidity 87    
Minimum Humidity 30    
Precipitation  
Precipitation 0.00 in 0.09 in 1.67 in (1977)
Month to date precipitation 1.96  
Year to date precipitation 8.74  
Sea Level Pressure  
Sea Level Pressure 29.92 in    
Wind  
Wind Speed 11 mph (SE)    
Max Wind Speed 23 mph    
Max Gust Speed 31 mph    
Visibility 6 miles    
Events      
T = Trace of Precipitation, MM = Missing Value Source: NWS Daily Summary

Daily Weather History Graph

Daily Weather History Graph

Search for Another Location

Airport or City:

Trip Planner

Search our weather history database for the weather conditions in past years. The results will help you decide how hot, cold, wet, or windy it might be!

Date:

Astronomy

Jun. 23, 2013 Rise Set
Actual Time 6:40 AM CDT 8:28 PM CDT
Civil Twilight 6:14 AM CDT 8:55 PM CDT
Nautical Twilight 5:43 AM CDT 9:26 PM CDT
Astronomical Twilight 5:09 AM CDT 9:59 PM CDT
Moon 8:50 PM CDT (6/23) 6:53 AM CDT (6/23)
Length of Visible Light 14h 40m
Length of Day
13h 47m
Full, 100% of the Moon is Illuminated
Jun 23
Full
Jun 29
Last Quarter
Jul 8
New
Jul 15
First Quarter
Jul 22
Full

Hourly Weather History & Observations

Time (CDT) Temp. Heat Index Dew Point Humidity Pressure Visibility Wind Dir Wind Speed Gust Speed Precip Events Conditions
12:15 AM 81.1 °F 85.6 °F 72.1 °F 74% 29.98 in 5.0 mi SSE 9.2 mph - N/A   Haze
12:35 AM 80.8 °F 85.2 °F 72.5 °F 76% 29.98 in 5.0 mi SE 5.8 mph - N/A   Haze
12:55 AM 80.6 °F 85.0 °F 72.9 °F 77% 29.98 in 7.0 mi SSE 6.9 mph - N/A   Clear
1:15 AM 81.0 °F 85.8 °F 73.2 °F 77% 29.97 in 7.0 mi SSE 8.1 mph - N/A   Clear
1:35 AM 80.6 °F 85.2 °F 73.0 °F 78% 29.96 in 5.0 mi SSE 9.2 mph - N/A   Haze
1:55 AM 80.2 °F 84.6 °F 73.0 °F 79% 29.95 in 5.0 mi SSE 6.9 mph - N/A   Haze
2:15 AM 80.1 °F 84.2 °F 72.9 °F 79% 29.95 in 5.0 mi SE 5.8 mph - N/A   Haze
2:35 AM 79.7 °F - 72.9 °F 80% 29.95 in 5.0 mi SSE 5.8 mph - N/A   Haze
2:55 AM 79.5 °F - 72.7 °F 79% 29.94 in 5.0 mi SE 5.8 mph - N/A   Haze
3:15 AM 79.0 °F - 72.7 °F 81% 29.94 in 5.0 mi SE 8.1 mph - N/A   Haze
3:35 AM 79.0 °F - 72.7 °F 81% 29.94 in 5.0 mi SE 8.1 mph - N/A   Haze
3:55 AM 78.8 °F - 72.5 °F 81% 29.94 in 5.0 mi SE 5.8 mph - N/A   Haze
4:15 AM 77.9 °F - 72.5 °F 83% 29.94 in 7.0 mi ESE 3.5 mph - N/A   Clear
4:35 AM 77.9 °F - 72.5 °F 83% 29.94 in 5.0 mi ESE 5.8 mph - N/A   Haze
4:55 AM 77.9 °F - 72.5 °F 83% 29.94 in 7.0 mi ESE 5.8 mph - N/A   Clear
5:15 AM 77.9 °F - 72.5 °F 83% 29.94 in 7.0 mi SE 5.8 mph - N/A   Clear
5:35 AM 77.7 °F - 72.5 °F 84% 29.93 in 5.0 mi SE 5.8 mph - N/A   Haze
5:55 AM 77.4 °F - 72.5 °F 85% 29.93 in 7.0 mi ESE 6.9 mph - N/A   Clear
6:15 AM 77.4 °F - 72.7 °F 85% 29.93 in 5.0 mi SE 6.9 mph - N/A   Clear
6:35 AM 77.4 °F - 72.9 °F 86% 29.94 in 5.0 mi SE 6.9 mph - N/A   Clear
6:55 AM 77.4 °F - 73.0 °F 86% 29.93 in 4.0 mi SE 5.8 mph - N/A   Clear
7:15 AM 77.5 °F - 73.4 °F 87% 29.94 in 4.0 mi SE 4.6 mph - N/A   Haze
7:35 AM 78.1 °F - 73.6 °F 86% 29.94 in 4.0 mi SE 5.8 mph - N/A   Clear
7:55 AM 79.3 °F - 74.3 °F 84% 29.94 in 4.0 mi SE 9.2 mph - N/A   Haze
8:15 AM 80.8 °F 86.1 °F 74.3 °F 81% 29.94 in 5.0 mi SE 9.2 mph - N/A   Haze
8:35 AM 82.8 °F 89.8 °F 74.8 °F 77% 29.94 in 4.0 mi SSE 9.2 mph - N/A   Haze
8:55 AM 83.8 °F 91.1 °F 74.5 °F 73% 29.95 in 4.0 mi SSE 13.8 mph 18.4 mph N/A   Haze
9:15 AM 85.3 °F 93.4 °F 74.3 °F 70% 29.95 in 5.0 mi SSE 13.8 mph 19.6 mph N/A   Haze
9:35 AM 86.9 °F 94.1 °F 72.9 °F 63% 29.95 in 5.0 mi SSE 15.0 mph 20.7 mph N/A   Haze
9:55 AM 87.6 °F 94.3 °F 72.0 °F 60% 29.95 in 5.0 mi SSE 17.3 mph - N/A   Haze
10:15 AM 88.5 °F 94.4 °F 71.2 °F 56% 29.95 in 5.0 mi SSE 13.8 mph 24.2 mph N/A   Haze
10:35 AM 89.6 °F 96.2 °F 71.4 °F 55% 29.95 in 5.0 mi SSE 12.7 mph 18.4 mph N/A   Haze
11:15 AM 91.8 °F 96.0 °F 68.0 °F 46% 29.95 in 5.0 mi SSE 15.0 mph 25.3 mph N/A   Haze
12:35 PM 95.7 °F 99.8 °F 67.1 °F 39% 29.94 in 5.0 mi South 13.8 mph - N/A   Haze
12:55 PM 95.4 °F 99.1 °F 67.1 °F 39% 29.93 in 7.0 mi SSE 12.7 mph 20.7 mph N/A   Scattered Clouds
1:35 PM 97.7 °F 99.0 °F 62.6 °F 31% 29.92 in 5.0 mi SSE 21.9 mph 29.9 mph N/A   Haze
1:55 PM 97.2 °F 98.6 °F 62.4 °F 32% 29.91 in 7.0 mi SE 19.6 mph 26.5 mph N/A   Scattered Clouds
2:15 PM 99.0 °F 100.5 °F 62.1 °F 30% 29.90 in 7.0 mi SSE 18.4 mph 27.6 mph N/A   Scattered Clouds
2:35 PM 98.1 °F 99.6 °F 62.6 °F 31% 29.90 in 7.0 mi SSE 16.1 mph 25.3 mph N/A   Scattered Clouds
2:55 PM 97.3 °F 98.4 °F 62.2 °F 31% 29.90 in 5.0 mi SSE 18.4 mph 25.3 mph N/A   Haze
3:15 PM 98.2 °F 99.9 °F 62.8 °F 31% 29.89 in 7.0 mi SSE 16.1 mph 27.6 mph N/A   Scattered Clouds
3:35 PM 98.6 °F 100.5 °F 63.5 °F 31% 29.89 in 7.0 mi SSE 21.9 mph 27.6 mph N/A   Scattered Clouds
3:55 PM 96.3 °F 99.1 °F 64.9 °F 36% 29.88 in 7.0 mi SSE 20.7 mph 29.9 mph N/A   Scattered Clouds
4:15 PM 97.5 °F 99.2 °F 63.1 °F 32% 29.87 in 7.0 mi SE 20.7 mph 26.5 mph N/A   Scattered Clouds
4:35 PM 98.4 °F 99.7 °F 62.2 °F 30% 29.87 in 7.0 mi SE 17.3 mph 25.3 mph N/A   Clear
4:55 PM 97.3 °F 99.4 °F 63.9 °F 33% 29.87 in 7.0 mi SE 20.7 mph 28.8 mph N/A   Scattered Clouds
5:15 PM 97.3 °F 98.4 °F 62.2 °F 31% 29.87 in 5.0 mi SE 23.0 mph - N/A   Haze
5:35 PM 96.6 °F 98.7 °F 63.9 °F 34% 29.87 in 7.0 mi SE 20.7 mph 27.6 mph N/A   Scattered Clouds
5:55 PM 95.7 °F 97.7 °F 64.0 °F 35% 29.86 in 5.0 mi SE 21.9 mph 31.1 mph N/A   Haze
6:15 PM 95.2 °F 96.8 °F 63.1 °F 35% 29.86 in 7.0 mi SE 23.0 mph 28.8 mph N/A   Clear
6:35 PM 94.6 °F 94.7 °F 60.8 °F 32% 29.86 in 5.0 mi SE 20.7 mph 26.5 mph N/A   Haze
6:55 PM 94.1 °F 94.6 °F 61.9 °F 34% 29.86 in 7.0 mi SE 19.6 mph 26.5 mph N/A   Clear
7:15 PM 93.2 °F 94.1 °F 63.0 °F 36% 29.87 in 7.0 mi SE 17.3 mph 25.3 mph N/A   Clear
7:35 PM 91.8 °F 93.4 °F 64.0 °F 40% 29.87 in 5.0 mi SSE 17.3 mph 24.2 mph N/A   Haze
7:55 PM 90.5 °F 92.9 °F 65.8 °F 44% 29.87 in 7.0 mi SE 20.7 mph 25.3 mph N/A   Clear
8:15 PM 89.1 °F 91.7 °F 66.2 °F 47% 29.88 in 5.0 mi SE 16.1 mph 23.0 mph N/A   Haze
8:35 PM 87.8 °F 90.4 °F 66.4 °F 49% 29.88 in 5.0 mi SE 13.8 mph - N/A   Haze
8:55 PM 86.9 °F 89.9 °F 67.1 °F 52% 29.90 in 10.0 mi SE 15.0 mph 24.2 mph N/A   Clear
9:15 PM 86.0 °F 89.4 °F 68.0 °F 55% 29.90 in 7.0 mi SE 13.8 mph - N/A   Clear
9:35 PM 85.5 °F 88.8 °F 68.2 °F 56% 29.92 in 7.0 mi SE 12.7 mph - N/A   Clear
9:55 PM 84.6 °F 87.9 °F 68.4 °F 58% 29.93 in 7.0 mi SE 9.2 mph - N/A   Clear
10:15 PM 84.2 °F 87.9 °F 69.1 °F 60% 29.94 in 7.0 mi SE 11.5 mph - N/A   Clear
10:35 PM 83.8 °F 88.1 °F 70.0 °F 63% 29.94 in 7.0 mi SE 11.5 mph - N/A   Clear
10:55 PM 83.3 °F 87.9 °F 70.7 °F 66% 29.95 in 7.0 mi SE 9.2 mph - N/A   Clear
11:15 PM 82.4 °F 87.0 °F 71.2 °F 69% 29.95 in 7.0 mi SE 9.2 mph - N/A   Clear
11:35 PM 82.2 °F 87.1 °F 71.8 °F 71% 29.96 in 7.0 mi SE 9.2 mph - N/A   Clear
11:55 PM 82.0 °F 87.0 °F 72.1 °F 72% 29.96 in 7.0 mi SE 8.1 mph - N/A   Clear